Regional Weather Roundup
Issued by NWS

Home | Current Version | Previous Version | Graphics & Text | Print | Product List | Glossary On
Versions: 1 2 3 4 5 6 7 8 9 10 11 12 13 14 15 16 17 18 19 20 21 22 23 24 25 26 27 28 29 30 31 32 33 34 35 36 37 38 39 40 41 42 43 44 45 46 47 48 49 50
000
ASUS43 KLMK 220102
RWRKY
KENTUCKY REGIONAL WEATHER ROUNDUP
NATIONAL WEATHER SERVICE LOUISVILLE KY
900 PM EDT MON AUG 21 2017

NOTE "FAIR" INDICATES FEW OR NO CLOUDS BELOW 12,000 FEET
WITH NO SIGNIFICANT WEATHER AND/OR OBSTRUCTIONS TO VISIBILITY.

KYZ001>023-026-027-061>063-070>075-220200-
WESTERN AND SOUTH CENTRAL KENTUCKY

CITY           SKY/WX    TMP DP  RH WIND       PRES   REMARKS
PADUCAH        CLOUDY    84  75  74 S3        30.06R HX  92
HENDERSON      TSTM      73  71  93 W12       30.10R
OWENSBORO      CLEAR     83  69  62 SE7       30.07S
HOPKINSVILLE   CLEAR     85  73  67 S5        30.08F HX  92
BOWLING GREEN  CLOUDY    82  71  69 SE5       30.10S
GLASGOW        CLEAR     76  69  79 CALM      30.12F
$$

KYZ024-025-028>034-038-045-046-053-220200-
NORTH CENTRAL KENTUCKY

CITY           SKY/WX    TMP DP  RH WIND       PRES   REMARKS
LOUISVILLE/SDF CLOUDY    87  70  56 S7        30.07S HX  92
LOUISVILLE/LOU CLOUDY    85  71  63 S6        30.08F HX  90
FORT KNOX      CLOUDY    79  71  75 CALM      30.09S
$$

KYZ035>037-039>044-047>052-055>060-089>105-220200-
NORTHEAST KENTUCKY

CITY           SKY/WX    TMP DP  RH WIND       PRES   REMARKS
LEXINGTON      PTCLDY    80  68  66 S6        30.13S
COVINGTON      CLOUDY    78  73  84 S5        30.09F
FRANKFORT      CLOUDY    81  68  64 S6        30.10S
$$

KYZ054-064>069-076>088-106>120-220200-
SOUTHEAST KENTUCKY

CITY           SKY/WX    TMP DP  RH WIND       PRES   REMARKS
JACKSON        CLEAR     79  68  69 CALM      30.17S
LONDON         CLEAR     79  71  76 CALM      30.16S
SOMERSET       NOT AVBL
MIDDLESBORO    CLEAR     75  69  80 W3        30.18R
MONTICELLO     MOCLDY    74  73  97 CALM      30.16S
$$





USA.gov is the U.S. government's official web portal to all federal, state and local government web resources and services.